Jasper, AL

11:47 PM CDT on June 26, 2017 (GMT -0500)
Walker County-Bevill

Weather History for KJFX - November, 2012

Change the Weather History Date:

Friday, November 30, 2012

  Actual Average Record
Temperature  
Mean Temperature 50 °F -  
Max Temperature 69 °F 57 °F 76 °F (1991)
Min Temperature 32 °F 32 °F 12 °F (1976)
Degree Days  
Heating Degree Days 14    
Moisture  
Dew Point 40 °F    
Average Humidity 81    
Maximum Humidity 100    
Minimum Humidity 43    
Precipitation  
Precipitation 0.00 in - - ()
Sea Level Pressure  
Sea Level Pressure 30.30 in    
Wind  
Wind Speed 1 mph (SSW)    
Max Wind Speed 7 mph    
Max Gust Speed -    
Visibility 7 miles    
Events Rain    
Averages and records for this station are not official NWS values.
T = Trace of Precipitation, MM = Missing Value Source: NWS Daily Summary

Daily Weather History Graph

Daily Weather History Graph

Search for Another Location

Airport or City:

Trip Planner

Search our weather history database for the weather conditions in past years. The results will help you decide how hot, cold, wet, or windy it might be!

Date:

Astronomy

Nov. 30, 2012 Rise Set
Actual Time 6:35 AM CST 4:40 PM CST
Civil Twilight 6:08 AM CST 5:07 PM CST
Nautical Twilight 5:37 AM CST 5:38 PM CST
Astronomical Twilight 5:07 AM CST 6:08 PM CST
Moon 6:34 PM CST (11/30) 8:07 AM CST (11/30)
Length of Visible Light 10h 59m
Length of Day
10h 04m
Waning Gibbous, 96% of the Moon is Illuminated
Nov 30
Waning Gibbous
Dec 6
Last Quarter
Dec 13
New
Dec 19
First Quarter
Dec 28
Full

Hourly Weather History & Observations

Time (CST) Temp. Dew Point Humidity Pressure Visibility Wind Dir Wind Speed Gust Speed Precip Events Conditions
12:15 AM 32.0 °F 32.0 °F 100% 30.34 in 6.0 mi Calm Calm - N/A   Clear
12:35 AM 32.0 °F 32.0 °F 100% 30.34 in 5.0 mi Calm Calm - N/A   Clear
12:55 AM 32.0 °F 32.0 °F 100% 30.34 in 5.0 mi Calm Calm - N/A   Clear
1:15 AM 32.0 °F 32.0 °F 100% 30.34 in 4.0 mi Calm Calm - N/A   Clear
1:35 AM 32.0 °F 32.0 °F 100% 30.34 in 6.0 mi Calm Calm - N/A   Scattered Clouds
1:55 AM 33.8 °F 32.0 °F 93% 30.33 in 7.0 mi Calm Calm - N/A   Mostly Cloudy
2:15 AM 33.8 °F 32.0 °F 93% 30.33 in 8.0 mi Calm Calm - N/A   Mostly Cloudy
2:35 AM 33.8 °F 32.0 °F 93% 30.32 in 7.0 mi Calm Calm - N/A   Mostly Cloudy
2:55 AM 33.8 °F 32.0 °F 93% 30.32 in 6.0 mi Calm Calm - N/A   Mostly Cloudy
3:15 AM 33.8 °F 32.0 °F 93% 30.32 in 7.0 mi Calm Calm - N/A   Mostly Cloudy
3:55 AM 32.0 °F 32.0 °F 100% 30.32 in 6.0 mi Calm Calm - N/A   Clear
4:15 AM 32.0 °F 32.0 °F 100% 30.32 in 5.0 mi Calm Calm - N/A   Clear
4:35 AM 32.0 °F 32.0 °F 100% 30.32 in 7.0 mi Calm Calm - N/A   Clear
4:55 AM 32.0 °F 32.0 °F 100% 30.32 in 5.0 mi Calm Calm - N/A   Clear
5:15 AM 32.0 °F 30.2 °F 93% 30.32 in 5.0 mi Calm Calm - N/A   Clear
5:35 AM 32.0 °F 32.0 °F 100% 30.33 in 6.0 mi Calm Calm - N/A   Partly Cloudy
5:55 AM 32.0 °F 32.0 °F 100% 30.33 in 6.0 mi Calm Calm - N/A   Clear
6:15 AM 32.0 °F 30.2 °F 93% 30.33 in 5.0 mi Calm Calm - N/A   Partly Cloudy
6:35 AM 32.0 °F 32.0 °F 100% 30.34 in 5.0 mi Calm Calm - N/A   Scattered Clouds
6:55 AM 32.0 °F 32.0 °F 100% 30.35 in 5.0 mi Calm Calm - N/A   Partly Cloudy
7:15 AM 33.8 °F 32.0 °F 93% 30.35 in 5.0 mi Calm Calm - N/A   Scattered Clouds
7:35 AM 35.6 °F 33.8 °F 93% 30.36 in 5.0 mi Calm Calm - N/A   Mostly Cloudy
7:55 AM 37.4 °F 35.6 °F 93% 30.36 in 5.0 mi Calm Calm - N/A   Mostly Cloudy
8:15 AM 41.0 °F 37.4 °F 87% 30.36 in 5.0 mi Calm Calm - N/A   Partly Cloudy
8:35 AM 42.8 °F 39.2 °F 87% 30.36 in 5.0 mi Calm Calm - N/A   Scattered Clouds
8:55 AM 46.4 °F 42.8 °F 87% 30.36 in 5.0 mi Calm Calm - N/A   Haze
9:15 AM 50.0 °F 44.6 °F 82% 30.36 in 7.0 mi Calm Calm - N/A   Mostly Cloudy
9:35 AM 53.6 °F 44.6 °F 72% 30.36 in 8.0 mi Calm Calm - N/A   Scattered Clouds
9:55 AM 55.4 °F 44.6 °F 67% 30.36 in 9.0 mi SSE 3.5 mph - N/A   Clear
10:15 AM 57.2 °F 46.4 °F 67% 30.35 in 10.0 mi SSE 4.6 mph - N/A   Partly Cloudy
10:35 AM 60.8 °F 46.4 °F 59% 30.35 in 9.0 mi Calm Calm - N/A   Clear
10:55 AM 62.6 °F 46.4 °F 55% 30.34 in 10.0 mi Calm Calm - N/A   Clear
11:15 AM 64.4 °F 48.2 °F 56% 30.32 in 10.0 mi SW 5.8 mph - N/A   Clear
11:35 AM 64.4 °F 48.2 °F 56% 30.31 in 10.0 mi SSE 4.6 mph - N/A   Clear
11:55 AM 66.2 °F 48.2 °F 52% 30.30 in 10.0 mi SSW 5.8 mph - N/A   Clear
12:15 PM 66.2 °F 48.2 °F 52% 30.29 in 10.0 mi SW 6.9 mph - N/A   Partly Cloudy
12:35 PM 66.2 °F 48.2 °F 52% 30.29 in 10.0 mi SW 4.6 mph - N/A   Partly Cloudy
12:55 PM 66.2 °F 48.2 °F 52% 30.28 in 10.0 mi Calm Calm - N/A   Partly Cloudy
1:15 PM 66.2 °F 48.2 °F 52% 30.26 in 10.0 mi NNW 3.5 mph - N/A   Partly Cloudy
1:35 PM 68.0 °F 46.4 °F 46% 30.25 in 10.0 mi SW 4.6 mph - N/A   Partly Cloudy
1:55 PM 69.8 °F 46.4 °F 43% 30.24 in 10.0 mi SSE 3.5 mph - N/A   Clear
2:15 PM 69.8 °F 46.4 °F 43% 30.24 in 10.0 mi SSW 3.5 mph - N/A   Clear
2:35 PM 69.8 °F 46.4 °F 43% 30.23 in 10.0 mi Calm Calm - N/A   Clear
2:55 PM 69.8 °F 46.4 °F 43% 30.23 in 10.0 mi Calm Calm - N/A   Clear
3:15 PM 68.0 °F 44.6 °F 43% 30.23 in 10.0 mi SW 3.5 mph - N/A   Clear
3:35 PM 68.0 °F 44.6 °F 43% 30.24 in 10.0 mi SW 3.5 mph - N/A   Clear
3:55 PM 68.0 °F 46.4 °F 46% 30.24 in 10.0 mi North - - N/A   Clear
4:15 PM 66.2 °F 46.4 °F 49% 30.24 in 10.0 mi Calm Calm - N/A   Clear
4:35 PM 62.6 °F 46.4 °F 55% 30.24 in 10.0 mi Calm Calm - N/A   Clear
4:55 PM 57.2 °F 46.4 °F 67% 30.24 in 10.0 mi Calm Calm - N/A   Clear
5:15 PM 51.8 °F 46.4 °F 82% 30.24 in 10.0 mi Calm Calm - N/A   Clear
5:35 PM 48.2 °F 44.6 °F 87% 30.25 in 10.0 mi Calm Calm - N/A   Clear
5:55 PM 48.2 °F 44.6 °F 87% 30.25 in 4.0 mi Calm Calm - N/A   Clear
6:15 PM 46.4 °F 44.6 °F 93% 30.26 in 8.0 mi Calm Calm - N/A Rain Light Rain
6:35 PM 44.6 °F 42.8 °F 93% 30.26 in 5.0 mi Calm Calm - N/A Rain Light Rain
6:55 PM 44.6 °F 42.8 °F 93% 30.26 in 6.0 mi Calm Calm - N/A Rain Light Rain
7:15 PM 44.6 °F 42.8 °F 93% 30.26 in 6.0 mi Calm Calm - N/A   Clear
7:35 PM 42.8 °F 42.8 °F 100% 30.26 in 7.0 mi Calm Calm - N/A   Clear
7:55 PM 42.8 °F 41.0 °F 93% 30.27 in 8.0 mi Calm Calm - N/A Rain Light Rain
8:15 PM 41.0 °F 39.2 °F 93% 30.27 in 2.5 mi Calm Calm - N/A Rain Light Rain
8:35 PM 41.0 °F 39.2 °F 93% 30.27 in 5.0 mi Calm Calm - N/A Rain Light Rain
8:55 PM 41.0 °F 39.2 °F 93% 30.27 in 5.0 mi Calm Calm - N/A   Clear
9:15 PM 39.2 °F 39.2 °F 100% 30.27 in 7.0 mi Calm Calm - N/A Rain Light Rain
9:35 PM 39.2 °F 39.2 °F 100% 30.27 in 5.0 mi Calm Calm - N/A Rain Light Rain
9:55 PM 39.2 °F 37.4 °F 93% 30.27 in 3.0 mi Calm Calm - N/A   Clear
10:15 PM 39.2 °F 37.4 °F 93% 30.27 in 5.0 mi Calm Calm - N/A   Clear
10:35 PM 39.2 °F 37.4 °F 93% 30.27 in 4.0 mi Calm Calm - N/A   Clear
10:55 PM 37.4 °F 37.4 °F 100% 30.27 in 4.0 mi Calm Calm - N/A Rain Light Rain
11:15 PM 37.4 °F 35.6 °F 93% 30.27 in 3.0 mi Calm Calm - N/A Rain Light Rain
11:35 PM 37.4 °F 35.6 °F 93% 30.27 in 4.0 mi Calm Calm - N/A   Clear
11:55 PM 37.4 °F 37.4 °F 100% 30.27 in 1.0 mi Calm Calm - N/A   Clear